Location: Bow
(51.5261°N, 0.0167°W)
Time: 17:26:21
(UTC+00:00)

CENTAUR R/B - Pass Details

Date: 18 September 2020
Orbit: 753 x 1435 km, 63.5° (Epoch: 26 October)

Event Time Altitude Azimuth Distance (km) Brightness Sun altitude
Rises 21:12:26 0° 315° (NW) 4,134 7.1 -27.0°
Reaches altitude 10° 21:15:10 10° 310° (NW) 3,251 6.2 -27.3°
Maximum altitude 21:22:49 49° 239° (WSW) 1,707 3.7 -28.2°
Enters shadow 21:25:43 37° 193° (SSW) 2,046 3.8 -28.5°
